Sigfox identifier Datetime Temperature Humidity SNR
003911E7 2019-02-20 13:55:53 20.9 23 24.8
003911E7 2019-02-20 13:23:47 20.9 24 24.8
003911E7 2019-02-20 12:51:39 20.8 25 24.2
003911E7 2019-02-20 12:19:38 20.8 25 24.3
003911E7 2019-02-20 11:47:30 20.8 25 24.3
003911E7 2019-02-20 11:15:24 20.8 26 23.6
003911E7 2019-02-20 10:43:21 20.8 26 23.6
003911E7 2019-02-20 10:11:14 21 26 22.9
003911E7 2019-02-20 10:10:00 20.7 26 21.9
003911E7 2019-02-20 09:37:54 20.7 26 22
003911E7 2019-02-20 09:05:49 20.7 26 20.9
003911E7 2019-02-20 08:33:46 20.7 26 19.6
003911E7 2019-02-20 08:01:43 20.7 26 19.5
003911E7 2019-02-20 07:29:37 20.7 26 19.3
003911E7 2019-02-20 06:57:33 20.8 26 19.6
003911E7 2019-02-20 06:25:29 20.8 26 19.2
003911E7 2019-02-20 05:53:25 20.8 26 19.2
003911E7 2019-02-20 05:21:22 20.8 26 18.7
003911E7 2019-02-20 04:49:15 20.8 26 18.4
003911E7 2019-02-20 04:17:08 20.8 26 18.1
003911E7 2019-02-20 03:45:03 20.8 26 18.1
003911E7 2019-02-20 03:12:55 20.8 26 20
003911E7 2019-02-20 02:40:49 20.8 26 19.9
003911E7 2019-02-20 02:08:44 20.8 26 19.9
003911E7 2019-02-20 01:36:39 20.9 26 19.7
003911E7 2019-02-20 01:04:34 20.9 26 19.7
003911E7 2019-02-20 00:32:28 20.9 26 19.6
003911E7 2019-02-20 00:00:25 20.9 26 21.2
003911E7 2019-02-19 23:28:18 20.9 26 21
003911E7 2019-02-19 22:56:13 20.9 26 21
003911E7 2019-02-19 22:24:08 20.9 26 21
003911E7 2019-02-19 21:52:05 20.9 26 20.9
003911E7 2019-02-19 21:19:58 21 26 20.8
003911E7 2019-02-19 20:47:53 21 26 20.8
003911E7 2019-02-19 20:15:45 21 26 20.6
003911E7 2019-02-19 19:43:40 21 26 20.4
003911E7 2019-02-19 19:11:35 21 26 20.2
003911E7 2019-02-19 18:39:29 21 26 20.1
003911E7 2019-02-19 18:07:23 21.1 26 20.1
003911E7 2019-02-19 17:35:17 21.1 26 19.7
003911E7 2019-02-19 17:03:11 21.1 26 19.7
003911E7 2019-02-19 16:31:08 21.1 26 19.7
003911E7 2019-02-19 15:58:59 21 26 19.7
003911E7 2019-02-19 15:26:53 21.1 26 19.8
003911E7 2019-02-19 14:54:47 21.1 26 19.8
003911E7 2019-02-19 14:22:43 21.1 26 19.8
003911E7 2019-02-19 13:50:33 21 26 17.5
003911E7 2019-02-19 13:18:26 21 25 19.8
003911E7 2019-02-19 12:46:19 21 25 19.8
003911E7 2019-02-19 12:14:08 21 25 20
003911E7 2019-02-19 11:42:00 21 25 20.2
003911E7 2019-02-19 11:09:55 20.9 25 20.1
003911E7 2019-02-19 10:37:44 20.9 25 18.6
003911E7 2019-02-19 10:05:35 20.9 25 19.2
003911E7 2019-02-19 06:19:36 20.8 24 19.7
003911E7 2019-02-19 05:47:30 20.8 24 20
003911E7 2019-02-19 05:15:21 20.8 23 20.1
003911E7 2019-02-19 03:39:03 20.8 23 20.7
003911E7 2019-02-19 03:06:58 20.8 23 21
003911E7 2019-02-19 01:30:40 20.8 23 21.4
003911E7 2019-02-19 00:58:37 20.8 23 21.4
003911E7 2019-02-19 00:26:28 20.8 22 21.6
003911E7 2019-02-18 23:54:23 20.8 22 21.7
003911E7 2019-02-18 23:22:21 20.8 22 21.9
003911E7 2019-02-18 22:50:15 20.8 22 22.3
003911E7 2019-02-18 21:46:01 20.8 22 22.4
003911E7 2019-02-18 21:13:54 20.8 22 22.5
003911E7 2019-02-18 19:37:33 20.9 21 22.7
003911E7 2019-02-18 19:05:30 20.9 21 22.8
003911E7 2019-02-18 18:01:17 20.9 21 22.8
003911E7 2019-02-18 17:29:10 21 21 23
003911E7 2019-02-18 16:57:04 21 21 23.1
003911E7 2019-02-18 15:20:48 21 21 22.4
003911E7 2019-02-18 14:48:43 21.1 20 22.6
003911E7 2019-02-18 14:16:42 21.1 20 22.8
003911E7 2019-02-18 13:44:33 21.2 20 22.9
003911E7 2019-02-18 13:12:28 21.2 19 23.1
003911E7 2019-02-18 12:40:23 21.3 19 23
003911E7 2019-02-18 12:08:18 21.3 19 23
003911E7 2019-02-18 11:36:13 21.3 19 23.5
003911E7 2019-02-18 11:04:08 21.2 19 23.6
003911E7 2019-02-18 10:32:02 21.2 19 23.6
003911E7 2019-02-18 09:59:55 21.2 19 23.5
003911E7 2019-02-18 09:27:51 21.1 19 23.7
003911E7 2019-02-18 08:55:45 21.1 19 23.7
003911E7 2019-02-18 08:23:40 21.1 19 23.9
003911E7 2019-02-18 07:51:34 21 19 23.8
003911E7 2019-02-18 07:19:29 21 19 24
003911E7 2019-02-18 06:47:24 21 19 23.9
003911E7 2019-02-18 06:15:18 21 19 23.8
003911E7 2019-02-18 05:43:12 21.3 18 23.9
003911E7 2019-02-18 05:41:58 21 19 24
003911E7 2019-02-18 05:09:52 21 19 24
003911E7 2019-02-18 04:37:46 21 19 24
003911E7 2019-02-18 04:05:42 21 19 24.2
003911E7 2019-02-18 03:33:34 21 19 24.2
003911E7 2019-02-18 03:01:28 21 19 24.2
003911E7 2019-02-18 02:29:22 21 19 24.3
003911E7 2019-02-18 01:57:15 21.1 19 24.3
003911E7 2019-02-18 01:25:10 21.1 19 24.3
003911E7 2019-02-18 00:53:04 21.1 19 24.3
003911E7 2019-02-18 00:20:57 21.1 19 24.4
003911E7 2019-02-17 23:48:51 21.1 19 24.4
003911E7 2019-02-17 23:16:47 21.1 19 24.5
003911E7 2019-02-17 22:44:40 21.1 20 23.9
003911E7 2019-02-17 22:12:34 21.1 20 23.9
003911E7 2019-02-17 21:40:27 21.1 20 23.9
003911E7 2019-02-17 21:08:19 21.1 20 24
003911E7 2019-02-17 20:36:12 21.1 20 23.6
003911E7 2019-02-17 20:04:05 21.1 20 23.6
003911E7 2019-02-17 19:31:57 21.1 20 23.5
003911E7 2019-02-17 18:59:49 21.1 20 23.7
003911E7 2019-02-17 18:27:40 21.1 20 23.8
003911E7 2019-02-17 17:55:31 21.1 20 23.8
003911E7 2019-02-17 17:23:23 21.2 20 23.8
003911E7 2019-02-17 16:51:14 21.2 20 23.8
003911E7 2019-02-17 16:19:05 21.2 20 23.8
003911E7 2019-02-17 15:46:57 21.2 21 23.8
003911E7 2019-02-17 15:14:47 21.2 21 23.9
003911E7 2019-02-17 14:42:37 21.2 21 23.7
003911E7 2019-02-17 14:10:28 21.2 21 23.8
003911E7 2019-02-17 13:38:18 21.2 21 23.8
003911E7 2019-02-17 13:06:09 21.2 21 23.8
003911E7 2019-02-17 12:34:00 21.2 21 23.8
003911E7 2019-02-17 12:01:48 21.1 21 23.8
003911E7 2019-02-17 11:29:38 21.1 21 23.8
003911E7 2019-02-17 10:57:29 21.1 21 23.9
003911E7 2019-02-17 10:25:23 21.1 21 23.8
003911E7 2019-02-17 09:53:16 21.1 22 23.8
003911E7 2019-02-17 09:21:10 21.1 22 23.8
003911E7 2019-02-17 08:49:04 21.1 22 23.8
003911E7 2019-02-17 08:16:57 21.1 22 23.8
003911E7 2019-02-17 07:44:49 21.1 22 23.8
003911E7 2019-02-17 07:12:44 21.1 22 23.9
003911E7 2019-02-17 06:40:38 21.2 22 24
003911E7 2019-02-17 06:08:32 21.2 22 24.1
003911E7 2019-02-17 05:36:26 21.2 23 24.1
003911E7 2019-02-17 05:04:19 21.2 23 23.9
003911E7 2019-02-17 04:32:11 21.2 23 24
003911E7 2019-02-17 04:00:06 21.2 23 23.9
003911E7 2019-02-17 03:28:00 21.4 23 23.9
003911E7 2019-02-17 03:26:45 21.2 23 23.9
003911E7 2019-02-17 02:54:40 21.2 23 23.9
003911E7 2019-02-17 02:22:34 21.2 24 23.9
003911E7 2019-02-17 01:50:28 21.2 24 24
003911E7 2019-02-17 01:18:22 21.2 24 24
003911E7 2019-02-17 00:46:15 21.2 24 23.9
003911E7 2019-02-17 00:14:09 21.2 24 24.4
003911E7 2019-02-16 23:42:01 21.2 24 24.4
003911E7 2019-02-16 23:09:54 21.2 24 24.4
003911E7 2019-02-16 22:37:48 21.2 24 24.3
003911E7 2019-02-16 22:05:42 21.2 24 24.3
003911E7 2019-02-16 21:33:37 21.3 24 24.2
003911E7 2019-02-16 21:01:31 21.3 24 24.2
003911E7 2019-02-16 20:29:26 21.3 24 24.2
003911E7 2019-02-16 19:57:21 21.3 24 24.3
003911E7 2019-02-16 19:25:16 21.3 24 24.3
003911E7 2019-02-16 18:53:10 21.3 24 24.3
003911E7 2019-02-16 18:21:04 21.3 24 24.4
003911E7 2019-02-16 17:48:57 21.3 24 24.2
003911E7 2019-02-16 17:16:53 21.4 25 24.1
003911E7 2019-02-16 16:44:47 21.4 25 24.1
003911E7 2019-02-16 16:12:42 21.4 25 24.1
003911E7 2019-02-16 15:40:35 21.4 25 24.1
003911E7 2019-02-16 15:08:28 21.4 25 24.2
003911E7 2019-02-16 14:36:20 21.4 25 24.2
003911E7 2019-02-16 14:04:13 21.3 24 24.2
003911E7 2019-02-16 13:32:08 21.3 24 24.4
003911E7 2019-02-16 13:00:03 21.3 24 24.3
003911E7 2019-02-16 12:27:55 21.3 24 24.3
003911E7 2019-02-16 11:55:49 21.3 25 24.2
003911E7 2019-02-16 11:23:43 21.2 25 24.2
003911E7 2019-02-16 10:51:38 21.2 25 23.7
003911E7 2019-02-16 10:19:34 21.2 25 23.7
003911E7 2019-02-16 09:47:27 21.2 25 23.6
003911E7 2019-02-16 09:15:22 21.2 25 23.7
003911E7 2019-02-16 08:43:18 21.2 25 23.7
003911E7 2019-02-16 08:11:11 21.2 25 23.8
003911E7 2019-02-16 07:39:06 21.3 25 23.9
003911E7 2019-02-16 07:06:59 21.3 25 23.9
003911E7 2019-02-16 06:34:53 21.3 25 23.9
003911E7 2019-02-16 06:02:47 21.3 25 23.9
003911E7 2019-02-16 05:30:39 21.3 25 23.9
003911E7 2019-02-16 04:58:31 21.3 25 23.7
003911E7 2019-02-16 04:26:26 21.3 25 23.7
003911E7 2019-02-16 03:54:15 21.3 25 23.7
003911E7 2019-02-16 03:22:07 21.3 25 23.8
003911E7 2019-02-16 02:50:00 21.3 25 23.8
003911E7 2019-02-16 02:17:55 21.3 25 23.8
003911E7 2019-02-16 01:45:46 21.4 25 23.8
003911E7 2019-02-16 01:13:38 21.6 24 24.3
003911E7 2019-02-16 01:12:23 21.4 25 24.2
003911E7 2019-02-16 00:40:15 21.4 25 24.1
003911E7 2019-02-16 00:08:08 21.4 25 24
003911E7 2019-02-15 23:35:59 21.4 25 24
003911E7 2019-02-15 23:03:52 21.4 25 23.9
003911E7 2019-02-15 22:31:45 21.5 25 23.9
003911E7 2019-02-15 21:59:37 21.5 25 23.8
003911E7 2019-02-15 21:27:28 21.5 25 23.7
003911E7 2019-02-15 20:55:19 21.6 25 23.8
003911E7 2019-02-15 20:23:11 21.6 25 23.7
003911E7 2019-02-15 19:51:04 21.6 25 23.8
003911E7 2019-02-15 19:18:56 21.7 24 23.8
003911E7 2019-02-15 18:46:50 21.7 24 23.6
003911E7 2019-02-15 18:14:44 21.7 24 23.5
003911E7 2019-02-15 17:42:37 21.7 24 23.4
003911E7 2019-02-15 17:10:30 21.7 24 23.3
003911E7 2019-02-15 16:38:24 21.7 24 23.3
003911E7 2019-02-15 16:06:18 21.7 24 23.9
003911E7 2019-02-15 15:34:11 21.7 24 23.9
003911E7 2019-02-15 15:02:05 21.7 24 23.9
003911E7 2019-02-15 14:30:00 21.7 24 23.9
003911E7 2019-02-15 13:57:53 21.6 24 23.8
003911E7 2019-02-15 13:25:46 21.6 24 23.7
003911E7 2019-02-15 12:53:40 21.6 24 23.5
003911E7 2019-02-15 12:21:35 21.5 24 22.8
003911E7 2019-02-15 11:49:28 21.5 24 22.9
003911E7 2019-02-15 11:17:22 21.5 24 22.8
003911E7 2019-02-15 10:45:15 21.5 24 22.8
003911E7 2019-02-15 10:13:09 21.5 24 22.8
003911E7 2019-02-15 09:41:02 21.4 24 22.8
003911E7 2019-02-15 09:08:55 21.4 24 22.9
003911E7 2019-02-15 08:36:49 21.4 24 22.9
003911E7 2019-02-15 08:04:44 21.4 24 22.9
003911E7 2019-02-15 07:32:39 21.4 25 22.9
003911E7 2019-02-15 07:00:33 21.4 25 22.9
003911E7 2019-02-15 06:28:28 21.4 25 22.9
003911E7 2019-02-15 05:56:22 21.4 25 22.8
003911E7 2019-02-15 05:24:16 21.4 25 22.7
003911E7 2019-02-15 04:52:10 21.4 25 22.6
003911E7 2019-02-15 04:20:04 21.4 25 22.4
003911E7 2019-02-15 03:47:59 21.4 25 22.5
003911E7 2019-02-15 03:15:51 21.4 25 22.3
003911E7 2019-02-15 02:43:44 21.4 25 21.2
003911E7 2019-02-15 02:11:38 21.4 25 21.2
003911E7 2019-02-15 01:39:33 21.5 25 21
003911E7 2019-02-15 01:07:26 21.5 25 20.8
003911E7 2019-02-15 00:35:18 21.5 25 20.7
003911E7 2019-02-15 00:03:11 21.5 25 20.5
003911E7 2019-02-14 23:31:05 21.5 24 20.5
003911E7 2019-02-14 22:58:59 21.8 24 20.2
003911E7 2019-02-14 22:57:44 21.5 24 19.8
003911E7 2019-02-14 22:25:39 21.5 24 19.5
003911E7 2019-02-14 21:53:34 21.6 24 19.7
003911E7 2019-02-14 21:21:27 21.6 24 19.7
003911E7 2019-02-14 20:49:20 21.6 24 19.6
003911E7 2019-02-14 20:17:14 21.7 24 19.2
003911E7 2019-02-14 19:45:07 21.7 24 18.8
003911E7 2019-02-14 19:13:00 21.8 24 18.4
003911E7 2019-02-14 18:40:55 21.8 24 17.9
003911E7 2019-02-14 18:08:50 21.8 24 19.9
003911E7 2019-02-14 17:36:45 21.8 24 19.6
003911E7 2019-02-14 17:04:37 21.9 24 19.4
003911E7 2019-02-14 16:32:30 22 24 19.3
003911E7 2019-02-14 16:00:25 22 24 19.3
003911E7 2019-02-14 15:28:17 22 24 19.4
003911E7 2019-02-14 14:56:15 21.8 23 19.2
003911E7 2019-02-14 14:24:08 21.7 24 19.3
003911E7 2019-02-14 13:51:57 21.6 23 19.5
003911E7 2019-02-14 13:19:52 21.5 23 19.2
003911E7 2019-02-14 12:47:45 21.4 28 19.3
003911E7 2019-02-14 12:15:41 21.3 23 19.3
003911E7 2019-02-14 11:43:36 21.3 23 19.4
003911E7 2019-02-14 11:11:31 21.3 24 19.6
003911E7 2019-02-14 10:39:24 21 24 19.7
003911E7 2019-02-14 10:07:19 20.9 24 19.9
003911E7 2019-02-14 09:03:01 20.8 23 20
003911E7 2019-02-14 08:30:53 20.7 24 20
003911E7 2019-02-14 07:58:51 20.8 24 19.9
003911E7 2019-02-14 07:26:41 20.8 25 19.7
003911E7 2019-02-14 06:54:34 20.8 25 19.6
003911E7 2019-02-14 06:22:25 20.8 25 19.7
003911E7 2019-02-14 05:50:19 20.8 25 19.7
003911E7 2019-02-14 05:18:11 20.8 25 19.9
003911E7 2019-02-14 04:46:07 20.8 25 19.7
003911E7 2019-02-14 04:13:57 20.8 25 17.4
003911E7 2019-02-14 03:41:52 20.8 25 17.4
003911E7 2019-02-14 03:09:44 20.8 25 17.3
003911E7 2019-02-14 02:37:35 20.8 25 17.2
003911E7 2019-02-14 02:05:28 20.8 25 17.2
003911E7 2019-02-14 01:33:23 20.9 24 17.2
003911E7 2019-02-14 01:01:16 20.8 24 19.6
003911E7 2019-02-14 00:29:10 20.9 24 19.5
003911E7 2019-02-13 23:57:03 20.9 24 19.6
003911E7 2019-02-13 23:24:55 20.9 24 20
003911E7 2019-02-13 22:52:48 20.9 24 19.9
003911E7 2019-02-13 22:20:41 21 24 19.7
003911E7 2019-02-13 21:48:37 21 24 19.9
003911E7 2019-02-13 21:16:28 21.1 24 19.8
003911E7 2019-02-13 20:44:21 21.4 24 19.8
003911E7 2019-02-13 20:43:06 21.1 25 20.1
003911E7 2019-02-13 20:11:00 21.2 25 20.3
003911E7 2019-02-13 19:38:54 21.2 25 20.3
003911E7 2019-02-13 19:06:47 21.3 25 20.3
003911E7 2019-02-13 18:34:39 21.4 25 20.8
003911E7 2019-02-13 18:02:31 21.5 26 21
003911E7 2019-02-13 17:30:24 21.4 26 21.2
003911E7 2019-02-13 16:58:13 21.4 26 21.6
003911E7 2019-02-13 16:26:05 21.3 25 21.6
003911E7 2019-02-13 15:53:57 21.2 25 21.7
003911E7 2019-02-13 15:21:47 21.2 25 21.7
003911E7 2019-02-13 14:49:38 21.2 24 21.8
003911E7 2019-02-13 14:17:29 21.1 24 21.8
003911E7 2019-02-13 13:45:25 21.2 24 22
003911E7 2019-02-13 13:13:14 21.2 24 22.2
003911E7 2019-02-13 12:41:06 21.1 24 22.4
003911E7 2019-02-13 12:08:59 21.1 24 21.5
003911E7 2019-02-13 11:36:52 21 24 21.6
003911E7 2019-02-13 11:04:45 21 24 21.7
003911E7 2019-02-13 10:32:40 20.9 24 21.8
003911E7 2019-02-13 10:00:34 20.9 23 21.9
003911E7 2019-02-13 09:28:27 20.8 22 22
003911E7 2019-02-13 08:56:21 20.8 21 22
003911E7 2019-02-13 08:24:12 20.7 20 22.1
003911E7 2019-02-13 07:52:05 20.8 20 22
003911E7 2019-02-13 07:19:58 20.7 18 21.8
003911E7 2019-02-13 06:47:51 20.7 18 21.7
003911E7 2019-02-13 06:15:45 20.8 18 21.8
003911E7 2019-02-13 05:43:38 20.8 18 21.7
003911E7 2019-02-13 05:11:31 20.8 18 21.3
003911E7 2019-02-13 04:39:23 20.8 18 21.1
003911E7 2019-02-13 04:07:15 20.8 18 21.1
003911E7 2019-02-13 03:35:07 20.8 18 20.7
003911E7 2019-02-13 03:02:59 20.8 18 20.6
003911E7 2019-02-13 02:30:53 20.8 18 20.5
003911E7 2019-02-13 01:58:46 20.8 18 20.5
003911E7 2019-02-13 01:26:40 20.8 18 20.4
003911E7 2019-02-13 00:54:32 20.9 18 20.3
003911E7 2019-02-13 00:22:24 20.9 19 20.2
003911E7 2019-02-12 23:50:17 20.9 19 20.1
003911E7 2019-02-12 23:18:08 20.9 19 20
003911E7 2019-02-12 22:46:00 21 18 19.7
003911E7 2019-02-12 22:13:51 21.1 19 19.6
003911E7 2019-02-12 21:41:43 21.1 19 19.5
003911E7 2019-02-12 21:09:33 21.2 20 18.8
003911E7 2019-02-12 20:37:23 21.3 20 18.6
003911E7 2019-02-12 20:05:14 21.4 20 18.5
003911E7 2019-02-12 19:33:05 21.5 20 18.1
003911E7 2019-02-12 19:00:55 21.6 19 18.3
003911E7 2019-02-12 18:28:46 21.8 19 18.3
003911E7 2019-02-12 18:27:30 21.6 19 18.3
003911E7 2019-02-12 17:55:21 21.7 18 18
003911E7 2019-02-12 17:23:16 21.8 18 17.8
003911E7 2019-02-12 16:51:07 22 18 18.1
003911E7 2019-02-12 16:18:58 22.1 18 18.1
003911E7 2019-02-12 15:46:50 22.2 18 18.1
003911E7 2019-02-12 15:14:41 22.2 18 17.6
003911E7 2019-02-12 14:42:32 22.1 19 17.6
003911E7 2019-02-12 14:10:23 21.5 19 17.4
003911E7 2019-02-12 13:38:14 21.3 19 17.5
003911E7 2019-02-12 13:06:08 21.4 19 17.5
003911E7 2019-02-12 12:33:57 21.3 19 17.4
003911E7 2019-02-12 12:01:48 21.3 20 17.4
003911E7 2019-02-12 11:29:39 21.3 20 17
003911E7 2019-02-12 10:57:36 21.2 21 16.3
003911E7 2019-02-12 10:25:24 21.2 21 16
003911E7 2019-02-12 09:53:14 21.1 22 16.2
003911E7 2019-02-12 09:21:04 21 22 15.9
003911E7 2019-02-12 08:48:55 20.9 23 15.2
003911E7 2019-02-12 08:16:45 20.8 23 15.2
003911E7 2019-02-12 07:44:37 20.8 24 15.1
003911E7 2019-02-12 07:12:28 20.8 25 15.2
003911E7 2019-02-12 06:40:19 20.8 25 15.1
003911E7 2019-02-12 06:08:10 20.9 26 14.1
003911E7 2019-02-12 05:36:00 20.9 26 14.2
003911E7 2019-02-12 05:03:51 20.9 26 14.1
003911E7 2019-02-12 04:31:42 20.9 26 14.2
003911E7 2019-02-12 03:59:33 20.9 26 13.9
003911E7 2019-02-12 03:27:29 20.9 26 13.3
003911E7 2019-02-12 02:23:07 20.9 26 13.1
003911E7 2019-02-12 01:50:59 20.9 27 13.2
003911E7 2019-02-12 01:18:50 20.9 26 13.4
003911E7 2019-02-12 00:46:43 21 27 13.2
003911E7 2019-02-12 00:14:36 21 27 13.1
003911E7 2019-02-11 23:42:27 21 27 13.3
003911E7 2019-02-11 23:10:21 21.1 27 13.6
003911E7 2019-02-11 22:38:12 21.1 27 13.7
003911E7 2019-02-11 22:06:06 21.2 27 14
003911E7 2019-02-11 21:33:58 21.2 27 14.3
003911E7 2019-02-11 21:01:47 21.3 27 13.8
003911E7 2019-02-11 20:29:37 21.4 27 12.5
003911E7 2019-02-11 19:57:29 21.5 27 12.6
003911E7 2019-02-11 19:25:21 21.6 27 12.8
003911E7 2019-02-11 18:53:12 21.7 27 13.4
003911E7 2019-02-11 18:21:04 21.9 27 14.2
003911E7 2019-02-11 17:48:55 22 27 13.7
003911E7 2019-02-11 17:16:48 22.1 27 14.1
003911E7 2019-02-11 16:44:38 22.2 28 15.5
003911E7 2019-02-11 16:12:30 22.1 30 0